Stations météo

Publicité
Clermont-Ferrand, France (7460): Température de l'air & dewpoint: 10.11.2018 16:00:00 - 16.11.2018 16:00:00 (CET)Clermont-Ferrand, France (7460): Température de l'air 5cm: 10.11.2018 16:00:00 - 16.11.2018 16:00:00 (CET)Clermont-Ferrand, France (7460): Température de l'air -20cm & Température de l'air -100cm: 10.11.2018 16:00:00 - 16.11.2018 16:00:00 (CET)Clermont-Ferrand, France (7460): Vitesse du vent & gusts: 10.11.2018 16:00:00 - 16.11.2018 16:00:00 (CET)Clermont-Ferrand, France (7460): Direction du vent: 10.11.2018 16:00:00 - 16.11.2018 16:00:00 (CET)Clermont-Ferrand, France (7460): reduced air pressure: 10.11.2018 16:00:00 - 16.11.2018 16:00:00 (CET)Clermont-Ferrand, France (7460): visibility: 10.11.2018 16:00:00 - 16.11.2018 16:00:00 (CET)Clermont-Ferrand, France (7460): Ensoleillement: 10.11.2018 16:00:00 - 16.11.2018 16:00:00 (CET)Clermont-Ferrand, France (7460): Quantités de précipitations: 10.11.2018 16:00:00 - 16.11.2018 16:00:00 (CET)
Date & Time tt [°C] td [°C] tt 5cm [°C] tt -20cm [°C] tt -100cm [°C] ff [km/h] ff [knt] fx [km/h] fx [knt] dd ppp [hPa] vv [km] sd [min] rr [mm]
16.11.2018 16:00:00 14,6 9,0 17,2 12,3 14,2 11 6 16 9 NNE 1021,4 20 60 0,0
16.11.2018 15:00:00 15,5 9,4 20,4 12,3 14,2 7 4 18 10 N 1021,5 17 60 0,0
16.11.2018 14:00:00 15,0 8,7 19,3 12,3 14,2 6 3 13 7 N 1021,9 16 60 0,0
16.11.2018 13:00:00 14,4 8,1 18,3 12,4 14,2 6 3 12 7 NNE 1022,3 17 60 0,0
16.11.2018 12:00:00 13,0 8,1 15,0 12,4 14,2 3 2 9 5 SW 1023,0 11 60 0,0
16.11.2018 11:00:00 11,6 8,1 13,4 12,4 14,1 0 0 8 5 N 1023,8 12 60 0,0
16.11.2018 10:00:00 8,2 6,3 8,6 12,4 14,2 4 2 7 4 NNE 1024,5 7 60 0,0
16.11.2018 09:00:00 6,2 5,5 1,0 12,5 14,2 5 3 8 4 NNE 1024,8 0,6 23 0,0
16.11.2018 08:00:00 3,7 2,8 0,5 12,5 14,2 3 2 11 6 NNW 1024,6 0,2 0 0,0
16.11.2018 07:00:00 4,6 3,7 0,2 12,5 14,2 5 3 8 4 NW 1023,9 3,5 0 0,0
16.11.2018 06:00:00 4,5 2,8 2,9 12,5 14,2 5 3 14 8 ENE 1024,1 0,7 0 0,0
16.11.2018 05:00:00 7,4 5,9 4,9 12,6 14,2 8 5 10 6 NNW 1023,5 5 0 0,0
16.11.2018 04:00:00 7,4 5,5 4,3 12,6 14,2 3 2 10 5 N 1023,4 6 0 0,0
16.11.2018 03:00:00 7,7 5,8 3,1 12,6 14,2 3 2 7 4 NNE 1023,5 2,5 0 0,0
16.11.2018 02:00:00 8,3 6,6 2,3 12,6 14,2 6 3 7 4 N 1023,5 3,9 0 0,0
16.11.2018 01:00:00 7,9 6,2 2,2 12,6 14,2 4 2 9 5 NW 1023,4 4,7 0 0,0
16.11.2018 00:00:00 8,5 6,5 3,4 12,6 14,1 5 3 9 5 NNW 1023,3 7 0 0,0
15.11.2018 23:00:00 9,0 7,0 4,6 12,6 14,2 4 2 14 8 W 1022,9 14 0 0,0
15.11.2018 22:00:00 9,2 7,1 3,9 12,6 14,2 8 5 12 7 WSW 1022,6 14 0 0,0
15.11.2018 21:00:00 10,6 8,0 4,3 12,6 14,2 7 4 22 12 S 1022,0 14 0 0,0
15.11.2018 20:00:00 10,2 7,1 4,7 12,6 14,2 7 4 17 9 ENE 1021,8 14 0 0,0
15.11.2018 19:00:00 12,0 9,0 6,8 12,6 14,2 0 0 11 6 N 1021,2 15 0 0,0
15.11.2018 18:00:00 13,4 8,5 7,6 12,6 14,2 6 4 12 6 SSW 1020,7 19 0 0,0
15.11.2018 17:00:00 16,4 9,8 14,9 12,6 14,2 9 5 16 9 ENE 1020,2 19 30 0,0
15.11.2018 16:00:00 18,1 9,2 18,4 12,6 14,1 9 5 24 13 SSE 1019,9 27 15 0,0
15.11.2018 15:00:00 18,5 9,0 18,6 12,6 14,2 16 9 32 17 SSE 1020,2 31 34 0,0
15.11.2018 14:00:00 17,8 8,9 17,8 12,7 14,2 21 12 31 17 S 1020,5 28 50 0,0
15.11.2018 13:00:00 17,0 9,7 18,2 12,7 14,2 17 9 27 15 S 1021,2 20 58 0,0
15.11.2018 12:00:00 15,9 9,6 17,7 12,7 14,2 12 7 23 13 ESE 1022,1 17 60 0,0
15.11.2018 11:00:00 14,2 9,0 15,9 12,8 14,2 12 6 20 11 ESE 1023,0 13 60 0,0
15.11.2018 10:00:00 11,4 8,4 11,4 12,8 14,2 10 6 17 9 S 1023,3 12 60 0,0
15.11.2018 09:00:00 8,6 7,1 5,8 12,8 14,2 5 3 17 9 N 1023,7 8 29 0,0
15.11.2018 08:00:00 7,8 6,4 4,1 12,9 14,2 6 4 16 8 SSE 1023,4 8 0 0,0
15.11.2018 07:00:00 7,6 6,2 3,1 12,9 14,2 4 2 20 11 SSE 1023,2 13 0 0,0
15.11.2018 06:00:00 7,8 6,3 3,4 12,9 14,2 7 4 14 8 S 1023,0 12 0 0,0
15.11.2018 05:00:00 7,6 6,1 2,6 12,9 14,2 2 1 11 6 S 1023,0 8 0 0,0
15.11.2018 04:00:00 7,2 6,1 1,9 12,9 14,2 4 2 9 5 W 1023,0 11 0 0,0
15.11.2018 03:00:00 6,2 5,5 1,1 13,0 14,2 2 1 14 8 E 1023,8 11 0 0,0
15.11.2018 02:00:00 6,0 5,0 1,2 13,0 14,2 5 3 21 11 SSE 1023,9 2,7 0 0,0
15.11.2018 01:00:00 7,0 5,6 2,1 13,0 14,2 3 1 9 5 E 1024,0 10 0 0,0
15.11.2018 00:00:00 8,1 6,6 3,2 13,0 14,2 6 3 12 6 ENE 1024,0 13 0 0,0
14.11.2018 23:00:00 7,6 5,9 2,8 13,0 14,2 2 1 11 6 ENE 1024,0 11 0 0,0
14.11.2018 22:00:00 8,3 6,6 3,4 13,0 14,2 4 2 8 4 S 1024,1 18 0 0,0
14.11.2018 21:00:00 10,2 7,3 6,0 13,0 14,2 3 2 10 6 S 1023,8 21 0 0,0
14.11.2018 20:00:00 12,4 7,3 5,6 12,9 14,2 5 3 15 8 SE 1023,4 28 0 0,0
14.11.2018 19:00:00 13,5 8,1 5,9 12,9 14,2 8 4 19 10 SE 1023,3 37 0 0,0
14.11.2018 18:00:00 14,1 9,3 8,5 12,9 14,2 14 7 23 12 SSE 1023,1 29 0 0,0
14.11.2018 17:00:00 16,4 9,8 14,4 12,9 14,2 11 6 24 13 SE 1022,9 39 47 0,0
14.11.2018 16:00:00 18,1 10,5 19,5 12,9 14,2 14 7 22 12 SSE 1022,7 26 60 0,0
14.11.2018 15:00:00 18,4 10,2 21,6 12,9 14,2 13 7 21 11 SSW 1022,9 17 60 0,0
14.11.2018 14:00:00 17,7 10,3 20,6 12,9 14,1 13 7 23 12 S 1023,4 11 60 0,0
14.11.2018 13:00:00 16,8 10,4 18,8 12,9 14,1 18 10 31 17 S 1024,3 20 60 0,0
14.11.2018 12:00:00 15,7 10,2 17,2 13,0 14,2 19 11 30 16 S 1025,1 45 60 0,0
14.11.2018 11:00:00 14,2 9,8 13,9 13,0 14,1 16 8 29 16 S 1026,1 38 29 0,0
14.11.2018 10:00:00 11,8 11,2 9,8 13,0 14,2 13 7 22 12 S 1026,7 18 1 0,0
14.11.2018 09:00:00 9,2 8,7 7,9 13,0 14,2 3 2 6 3 N 1027,3 4,8 0 0,0
14.11.2018 08:00:00 7,8 7,4 4,6 13,0 14,2 0 0 5 3 N 1027,3 0,2 0 0,0
14.11.2018 07:00:00 6,7 6,1 3,8 13,0 14,2 0 0 4 2 N 1027,6 0,1 0 0,0
14.11.2018 06:00:00 7,3 6,7 5,5 13,0 14,1 0 0 4 2 N 1027,7 0,3 0 0,0
14.11.2018 05:00:00 7,6 7,0 2,9 13,0 14,2 3 1 5 3 ESE 1028,0 0,1 0 0,0
14.11.2018 04:00:00 8,0 7,2 3,8 13,0 14,2 2 1 10 5 N 1028,2 0,2 0 0,0
14.11.2018 03:00:00 8,4 7,6 6,2 13,0 14,2 6 4 9 5 N 1028,5 0,4 0 0,0
14.11.2018 02:00:00 9,6 8,5 6,0 13,0 14,2 4 2 7 4 NNE 1028,5 3,5 0 0,0
14.11.2018 01:00:00 10,3 9,4 6,3 13,0 14,1 5 3 10 5 NNW 1028,7 9 0 0,0
14.11.2018 00:00:00 10,1 9,0 7,5 13,0 14,1 0 0 5 3 N 1029,2 7 0 0,0
13.11.2018 23:00:00 10,5 9,3 8,1 13,0 14,1 2 1 7 4 NNE 1029,5 5 0 0,0
13.11.2018 22:00:00 10,9 9,7 10,5 13,0 14,1 5 3 9 5 E 1029,7 9 0 0,0
13.11.2018 21:00:00 11,4 10,0 10,5 13,0 14,1 8 5 11 6 SE 1029,6 13 0 0,0
13.11.2018 20:00:00 11,4 9,6 9,6 13,0 14,2 2 1 9 5 SSE 1029,8 12 0 0,0
13.11.2018 19:00:00 12,0 10,1 11,5 12,9 14,2 5 3 7 4 N 1029,6 42 0 0,0
13.11.2018 18:00:00 12,2 10,1 11,7 12,9 14,2 3 2 10 6 N 1029,6 60 0 0,0
13.11.2018 17:00:00 12,6 10,3 12,5 12,9 14,2 8 5 14 8 NNE 1029,5 56 0 0,0
13.11.2018 16:00:00 12,9 10,3 13,0 12,9 14,2 9 5 18 10 N 1029,4 60 0 0,0
13.11.2018 15:00:00 13,2 10,0 13,4 12,9 14,2 9 5 16 9 N 1028,8 60 0 0,0
13.11.2018 14:00:00 13,6 10,0 14,1 12,9 14,2 4 2 9 5 NNE 1028,6 60 0 0,0
13.11.2018 13:00:00 13,0 10,0 14,1 12,9 14,2 5 3 11 6 ENE 1029,0 60 0 0,0
13.11.2018 12:00:00 12,6 10,8 12,7 12,9 14,2 4 2 10 5 ENE 1029,4 26 0 0,0
13.11.2018 11:00:00 11,9 10,8 12,3 12,9 14,2 6 4 11 6 NNE 1029,6 14 0 0,2
13.11.2018 10:00:00 11,7 10,8 11,2 12,9 14,2 4 2 9 5 NE 1028,9 7 0 0,0
13.11.2018 09:00:00 11,2 10,3 10,4 12,9 14,2 0 0 5 3 N 1028,1 28 0 0,4
13.11.2018 08:00:00 11,0 10,1 10,3 12,9 14,2 5 3 7 4 N 1027,3 17 0 0,6
13.11.2018 07:00:00 10,8 9,9 10,2 12,8 14,2 0 0 10 5 N 1026,6 18 0 0,4
13.11.2018 06:00:00 11,1 10,0 10,7 12,8 14,2 7 4 9 5 ESE 1026,1 8 0 0,8
13.11.2018 05:00:00 11,2 10,1 10,8 12,8 14,2 4 2 21 11 SW 1025,6 12 0 0,6
13.11.2018 04:00:00 11,3 10,2 10,9 12,8 14,1 13 7 18 10 E 1024,8 54 0 1,4
13.11.2018 03:00:00 11,4 10,3 11,1 12,8 14,2 11 6 20 11 ENE 1024,4 4,1 0 3,3
13.11.2018 02:00:00 11,8 10,5 11,4 12,7 14,2 9 5 32 17 NE 1023,5 2,6 0 3,0
13.11.2018 01:00:00 12,7 10,2 12,5 12,7 14,2 22 12 38 21 N 1021,8 28 0 0,0
13.11.2018 00:00:00 15,6 9,7 14,8 12,7 14,2 6 3 20 11 NE 1020,1 58 0 0,0
12.11.2018 23:00:00 16,5 9,4 15,5 12,7 14,2 13 7 32 17 SSE 1019,2 60 0 0,0
12.11.2018 22:00:00 16,3 9,5 15,0 12,7 14,2 21 11 34 18 S 1018,7 60 0 0,0
12.11.2018 21:00:00 16,9 9,3 16,2 12,6 14,2 23 12 38 20 SSE 1018,5 60 0 0,0
12.11.2018 20:00:00 17,2 9,6 16,2 12,6 14,2 26 14 40 22 SSE 1018,3 60 0 0,0
12.11.2018 19:00:00 17,3 9,2 16,0 12,6 14,2 23 13 37 20 SSE 1017,7 60 0 0,0
12.11.2018 18:00:00 18,0 9,3 17,0 12,5 14,2 28 15 45 24 S 1017,0 60 0 0,0
12.11.2018 17:00:00 18,6 8,8 17,9 12,5 14,2 30 16 46 25 S 1016,3 14 0 0,0
12.11.2018 16:00:00 19,4 9,0 18,9 12,5 14,2 30 16 50 27 S 1015,8 51 0 0,0
12.11.2018 15:00:00 19,3 9,2 19,3 12,5 14,2 31 17 56 30 S 1015,5 38 8 0,0
12.11.2018 14:00:00 20,0 9,0 20,4 12,5 14,2 36 20 59 32 S 1015,3 42 12 0,0
12.11.2018 13:00:00 20,3 8,3 20,9 12,5 14,2 39 21 66 35 S 1015,2 15 42 0,0
12.11.2018 12:00:00 20,8 9,1 22,5 12,4 14,2 45 24 75 40 S 1014,9 12 60 0,0
12.11.2018 11:00:00 20,6 8,2 19,3 12,4 14,2 46 25 72 39 S 1014,7 12 60 0,0
12.11.2018 10:00:00 19,6 9,5 17,2 12,4 14,2 44 24 76 41 S 1013,7 12 50 0,0
12.11.2018 09:00:00 18,0 9,9 16,7 12,4 14,2 40 21 58 31 S 1013,1 23 54 0,0
12.11.2018 08:00:00 17,1 9,5 15,8 12,4 14,2 21 12 51 28 S 1012,0 60 2 0,0
12.11.2018 07:00:00 17,5 9,6 16,3 12,4 14,2 28 15 59 32 S 1011,4 60 0 0,0
12.11.2018 06:00:00 17,7 9,6 16,5 12,4 14,2 41 22 67 36 S 1010,7 60 0 0,0
12.11.2018 05:00:00 17,7 9,6 15,9 12,4 14,2 32 17 51 28 S 1010,4 60 0 0,0
12.11.2018 04:00:00 16,8 9,2 14,4 12,3 14,2 22 12 37 20 SSE 1010,4 60 0 0,0
12.11.2018 03:00:00 15,9 9,1 14,4 12,3 14,2 25 14 41 22 SSE 1010,6 60 0 0,0
12.11.2018 02:00:00 16,4 9,1 15,3 12,3 14,2 28 15 55 30 SSE 1010,3 60 0 0,0
12.11.2018 01:00:00 17,3 9,2 15,2 12,3 14,2 39 21 68 37 S 1010,2 60 0 0,0
12.11.2018 00:00:00 16,3 9,5 11,5 12,3 14,2 23 13 45 25 S 1010,6 60 0 0,0
11.11.2018 23:00:00 14,9 9,3 12,9 12,3 14,2 13 7 25 14 ESE 1011,4 60 0 0,0
11.11.2018 22:00:00 15,6 9,5 13,0 12,3 14,2 18 10 32 17 S 1012,0 60 0 0,0
11.11.2018 21:00:00 14,6 9,2 13,3 12,2 14,2 22 12 32 17 S 1012,1 60 0 0,0
11.11.2018 20:00:00 15,1 9,0 13,8 12,2 14,3 22 12 39 21 S 1012,0 60 0 0,0
11.11.2018 19:00:00 15,9 9,3 14,8 12,2 14,2 27 15 44 24 S 1011,8 60 0 0,0
11.11.2018 18:00:00 17,1 9,5 15,9 12,2 14,2 23 12 41 22 S 1011,1 59 0 0,0
11.11.2018 17:00:00 18,3 8,8 17,2 12,2 14,2 19 10 37 20 SSE 1010,2 60 0 0,0
11.11.2018 16:00:00 19,1 9,3 18,8 12,2 14,2 22 12 44 24 S 1009,5 59 40 0,0
11.11.2018 15:00:00 20,3 9,8 21,0 12,2 14,2 24 13 43 23 S 1008,9 17 57 0,0
11.11.2018 14:00:00 19,8 9,9 17,7 12,2 14,2 31 17 53 28 S 1009,1 34 52 0,0
11.11.2018 13:00:00 17,5 9,6 16,8 12,2 14,3 31 17 53 29 S 1010,1 40 32 0,0
11.11.2018 12:00:00 17,6 10,2 15,0 12,2 14,2 31 17 49 27 S 1010,3 47 50 0,0
11.11.2018 11:00:00 14,5 9,3 11,8 12,2 14,2 27 15 45 24 S 1011,5 45 23 0,0
11.11.2018 10:00:00 12,0 7,9 11,3 12,2 14,3 27 15 44 24 S 1011,3 44 0 0,0
11.11.2018 09:00:00 11,1 7,6 9,4 12,2 14,3 27 15 40 21 S 1011,0 40 30 0,0
11.11.2018 08:00:00 9,8 7,0 7,9 12,3 14,3 23 13 34 19 S 1011,1 56 0 0,0
11.11.2018 07:00:00 9,9 6,8 8,0 12,2 14,3 16 9 31 17 S 1011,0 60 0 0,0
11.11.2018 06:00:00 9,9 6,2 8,2 12,2 14,3 17 9 36 19 S 1010,8 60 0 0,0
11.11.2018 05:00:00 11,7 5,8 9,8 12,2 14,3 18 10 37 20 SSW 1010,7 60 0 0,0
11.11.2018 04:00:00 11,4 6,5 10,0 12,2 14,3 19 10 30 16 S 1010,7 60 0 0,0
11.11.2018 03:00:00 11,4 6,3 10,0 12,2 14,3 16 9 32 17 SSW 1010,7 60 0 0,0
11.11.2018 02:00:00 11,6 6,7 9,4 12,2 14,3 14 8 28 15 SSW 1010,9 60 0 0,4
11.11.2018 01:00:00 10,9 8,5 9,6 12,2 14,3 16 9 39 21 W 1010,6 1,9 0 2,8
11.11.2018 00:00:00 12,4 7,9 8,5 12,2 14,3 8 4 19 10 SW 1008,6 58 0 0,0
10.11.2018 23:00:00 10,4 7,1 9,0 12,2 14,3 18 10 30 16 S 1008,7 60 0 0,0
10.11.2018 22:00:00 11,8 6,7 10,1 12,2 14,3 16 8 26 14 SSW 1008,8 60 0 0,0
10.11.2018 21:00:00 12,1 7,2 8,0 12,1 14,3 15 8 27 14 S 1008,4 60 0 0,0
10.11.2018 20:00:00 11,4 8,1 8,7 12,1 14,3 13 7 26 14 SSW 1008,6 60 0 0,0
10.11.2018 19:00:00 13,0 9,1 11,3 12,1 14,3 14 8 24 13 SSE 1007,5 58 0 0,2
10.11.2018 18:00:00 14,4 8,3 13,2 12,0 14,3 11 6 22 12 SW 1006,9 60 0 0,0
10.11.2018 17:00:00 15,1 8,3 13,9 12,0 14,3 15 8 34 18 SSW 1006,1 60 0 0,0
10.11.2018 16:00:00 15,5 8,0 14,8 12,0 14,3 21 11 38 21 SSW 1006,0 60 0 0,0

tt = Température de l'air
td = dewpoint
tt 5cm = Température de l'air 5cm
tt -20cm = Température de l'air -20cm
tt -100cm = Température de l'air -100cm
ff = Vitesse du vent
fx = gusts
dd = Direction du vent
ppp = reduced air pressure
vv = visibility
sd = Ensoleillement
rr = Quantités de précipitations

stations d'obs. à proximité